Regional Weather Roundup
Issued by NWS

Home | Current Version | Previous Version | Text Only | Print | Product List | Glossary Off
Versions: 1 2 3 4 5 6 7 8 9 10 11 12 13 14 15 16 17 18 19 20 21 22 23 24 25 26 27 28 29 30 31 32 33 34 35 36 37 38 39 40 41 42 43 44 45 46 47 48 49 50

000
ASUS43 KDTX 182310
RWRMI
MICHIGAN HOURLY REGIONAL WEATHER ROUNDUP
NATIONAL WEATHER SERVICE DETROIT/PONTIAC MI
700 PM EDT THU SEP 18 2014

NOTE: "FAIR" INDICATES FEW OR NO CLOUDS BELOW 12,000 FEET WITH NO
SIGNIFICANT WEATHER AND/OR OBSTRUCTION TO VISIBILITY.

MIZ047>049-052>055-059>063-066>070-074>076-081>083-190000-
SOUTHEAST LOWER MICHIGAN

CITY           SKY/WX    TMP DP  RH WIND       PRES   REMARKS
ADRIAN         CLEAR     65  50  58 NE7       30.13S
ALMA           MOCLDY    54  48  81 E8        30.18S
ANN ARBOR      CLEAR     63  49  60 N13       30.14R
BAD AXE        CLEAR     49  42  74 NE8       30.20S
DETROIT CITY   CLOUDY    59  48  67 NE9       30.16R
DETROIT        MOCLDY    61  51  70 NE9       30.15R
FLINT          MOCLDY    59  48  67 NE8       30.17S
GROSSE ILE     CLEAR     61  52  72 NE12      30.14R
HILLSDALE      CLEAR     65  50  57 NE3       30.13R
HOWELL         PTCLDY    57  51  81 N3        30.17R

CITY           SKY/WX    TMP DP  RH WIND       PRES   REMARKS
JACKSON        PTCLDY    61  51  70 N9        30.14S
LAMBERTVILLE   CLEAR     64  54  68 CALM      30.13S
LANSING        CLEAR     57  50  77 E9        30.16S
LAPEER         NOT AVBL
MASON          CLEAR     58  50  75 NE7       30.16R
MONROE         PTCLDY    61  54  77 E8        30.12S
MT. CLEMENS    MOCLDY    56  49  78 NE10      30.15R
PONTIAC        PTCLDY    57  47  69 N9        30.16R
PORT HOPE        N/A     51  39  63 NE9       30.20S
PORT HURON     PTCLDY    52  46  82 N8        30.19R
TRI CITIES     MOCLDY    54  45  71 NE8       30.20S
YPSILANTI      MOCLDY    66  51  58 NE9       30.15R
$$
MIZ043>046-050>051-056>058-064>065-071>073-077>080-190000-
SOUTHWEST LOWER MICHIGAN

CITY           SKY/WX    TMP DP  RH WIND       PRES   REMARKS
BATTLE CREEK   CLEAR     65  52  62 NE10      30.14R
BENTON HARBOR  CLEAR     63  51  65 VRB3      30.11S
BIG RAPIDS     CLOUDY    58  54  85 E8        30.15R
COLDWATER      CLEAR     66  51  59 N6        30.12S
HOLLAND        CLEAR     66  53  63 NW5       30.13S
GRAND RAPIDS   PTCLDY    61  54  77 E8        30.15S
KALAMAZOO      CLEAR     67  49  52 E3        30.13S
MARSHALL       CLEAR     63  52  66 CALM      30.13R
MUSKEGON       MOCLDY    64  52  64 W6        30.13S
$$
MIZ016>042-190000-
NORTHERN LOWER MICHIGAN

CITY           SKY/WX    TMP DP  RH WIND       PRES   REMARKS
ALPENA         CLEAR     48  38  68 SE8       30.21S
BEAVER ISLAND  CLEAR     53  43  69 E5        30.18S
CADILLAC       CLEAR     59  47  62 CALM      30.14R
CHARLEVOIX     CLEAR     55  44  67 N5        30.19S
FRANKFORT      CLEAR     57  45  64 CALM      30.15S
GAYLORD        CLEAR     54  39  57 S3        30.16F
GRAYLING       CLEAR     56  42  58 E6        30.17S
HARBOR SPRINGS CLEAR     55  40  56 NE8       30.17S
HOUGHTON LAKE  CLEAR     55  45  68 SE7       30.16S
MANISTEE       CLEAR     57  46  67 NW7       30.16R
OSCODA         CLOUDY    50  38  63 E7        30.20S
PELLSTON       CLEAR     52  40  63 E10       30.18S
TRAVERSE CITY  PTCLDY    58  43  57 N6        30.14S
$$
MIZ007>008-015-190000-
EASTERN UPPER MICHIGAN

CITY           SKY/WX    TMP DP  RH WIND       PRES   REMARKS
KINROSS        CLEAR     48  37  66 SE5       30.20R
MACKINAC ISLAN CLEAR     48  38  66 E10G16    30.20R
NEWBERRY       CLEAR     49  37  61 S7        30.17S
S. S. MARIE    CLEAR     50  33  52 SE7       30.20R
$$
MIZ004>006-011>014-085-190000-
CENTRAL UPPER MICHIGAN

CITY           SKY/WX    TMP DP  RH WIND       PRES   REMARKS
MANISTIQUE     PTCLDY    51  40  67 CALM      30.17F
ESCANABA       PTCLDY    52  39  62 SE7       30.16F
MENOMINEE      MOCLDY    54  43  66 E6        30.15S
SAWYER-GWINN   MOCLDY    54  39  58 S9        30.13F
$$
MIZ001>003-009>011-084-190000-
WESTERN UPPER MICHIGAN

CITY           SKY/WX    TMP DP  RH WIND       PRES   REMARKS
IRON MOUNTAIN  CLOUDY    55  43  63 S6        30.13S
HOUGHTON       CLOUDY    46  38  73 E10       30.12S
COPPER HARBOR    N/A     47  36  65 VRB6      30.14F
IRONWOOD       CLOUDY    55  48  76 SE6       30.06F
$$

ABBREVIATIONS USED IN REMARKS
   TC - TEMPERATURE IN CELSIUS
  WCI - WIND CHILL INDEX
   HX - HEAT INDEX
  VSB - VISIBILITY




USA.gov is the U.S. government's official web portal to all federal, state and local government web resources and services.